Flag for Finland Weather past 2 weeks in Turku, Finland

Now
39 °F

Passing clouds.


Feels Like: 35 °F
Forecast: 35 / 46 °F
Wind: 6 mph from Southwest

Location: Turku Airport


UV Index: 0 (Low)

Visibility: N/A


Pressure: 30.07 "Hg

Humidity: 75%

Dew point: 32 °F

Location of TurkuLocation

Historic Weather in Turku

°F

Turku temperature yesterday

Maximum temperature yesterday: 48 °F (at 1:50 PM)
Minimum temperature yesterday: 28 °F (at 5:20 AM)
Average temperature yesterday: 39 °F

Past Weeks' High & Low Weather Summary

 TemperatureHumidityPressure
High52 °F (Apr 14, 3:20 PM)100% (Apr 2, 4:50 AM)30.24 "Hg (Apr 2, 4:50 AM)
Low18 °F (Apr 2, 4:50 AM)21% (Apr 9, 1:20 PM)29.27 "Hg (Apr 14, 3:20 AM)
Average38 °F73%29.86 "Hg
* Reported Apr 2 2:20 AM — Apr 17 2:50 AM, Turku, Weather by CustomWeather, © 2014

Note: Actual official high and low records may vary slightly from our data, if they occured in-between our weather recording intervals... More about our weather records

Advertising

Historic Weather Conditions — Data for Previous 24 hours

 ConditionsComfort  
Time TempWeatherWind HumidityBarometerVisibility
2:50 AM
Apr 17
39 °FPassing clouds.6 mph75%30.07 "HgN/A
2:20 AM37 °FPassing clouds.6 mph75%30.07 "HgN/A
1:50 AM37 °FPassing clouds.7 mph75%30.09 "HgN/A
1:20 AM37 °FPassing clouds.7 mph75%30.09 "HgN/A
12:50 AM37 °FPassing clouds.6 mph75%30.12 "HgN/A
12:20 AM36 °FPassing clouds.6 mph75%30.12 "HgN/A
11:50 PM
Apr 16
36 °FPassing clouds.5 mph75%30.12 "HgN/A
11:20 PM36 °FPassing clouds.6 mph70%30.15 "HgN/A
10:50 PM36 °FPassing clouds.3 mph70%30.15 "HgN/A
10:20 PM37 °FPassing clouds.3 mph70%30.18 "HgN/A
9:50 PM37 °FPassing clouds.5 mph70%30.18 "HgN/A
9:20 PM39 °FPassing clouds.5 mph61%30.18 "HgN/A
8:50 PM41 °FPassing clouds.7 mph53%30.18 "HgN/A
8:20 PM41 °FPassing clouds.7 mph49%30.18 "HgN/A
7:50 PM43 °FPassing clouds.7 mph46%30.18 "HgN/A
7:20 PM43 °FPassing clouds.8 mph46%30.18 "HgN/A
6:50 PM45 °FPassing clouds.10 mph42%30.18 "HgN/A
6:20 PM45 °FSunny.13 mph42%30.21 "Hg10 mi
5:50 PM45 °FSunny.14 mph39%30.21 "Hg10 mi
5:20 PM45 °FSunny.13 mph37%30.21 "Hg10 mi
4:50 PM46 °FPassing clouds.10 mph32%30.21 "HgN/A
4:20 PM46 °FSunny.12 mph37%30.21 "Hg10 mi
3:50 PM46 °FSunny.13 mph37%30.21 "Hg10 mi
3:20 PM46 °FPassing clouds.10 mph32%30.21 "HgN/A
2:50 PM46 °FPassing clouds.10 mph29%30.24 "HgN/A
2:20 PM46 °FPassing clouds.13 mph34%30.24 "HgN/A
1:50 PM48 °FPassing clouds.10 mph34%30.24 "HgN/A
1:20 PM46 °FPassing clouds.8 mph32%30.24 "HgN/A
12:50 PM46 °FPassing clouds.9 mph29%30.24 "HgN/A
12:20 PM46 °FPassing clouds.6 mph29%30.24 "HgN/A
11:50 AM46 °FPassing clouds.7 mph27%30.24 "HgN/A
11:20 AM45 °FPassing clouds.8 mph25%30.24 "HgN/A
10:50 AM43 °FSunny.6 mph31%30.24 "Hg10 mi
10:20 AM43 °FPassing clouds.6 mph36%30.24 "HgN/A
9:50 AM41 °FSunny.5 mph49%30.24 "Hg10 mi
9:20 AM39 °FPassing clouds.5 mph56%30.24 "HgN/A
8:50 AM37 °FPassing clouds.3 mph70%30.24 "HgN/A
8:20 AM34 °FSunny.2 mph81%30.24 "Hg10 mi
7:50 AM32 °FSunny.2 mph87%30.24 "Hg10 mi
7:20 AM30 °FSunny.2 mph93%30.24 "Hg10 mi
6:50 AM28 °FClear.2 mph93%30.21 "Hg10 mi
6:20 AM28 °FClear.3 mph93%30.21 "Hg10 mi
5:50 AM28 °FClear.3 mph93%30.21 "Hg10 mi
5:20 AM28 °FClear.3 mph93%30.18 "Hg10 mi
4:50 AM30 °FClear.6 mph86%30.18 "Hg10 mi
4:20 AM30 °FClear.6 mph86%30.18 "Hg10 mi
3:50 AM30 °FClear.5 mph86%30.15 "Hg10 mi
Weather by CustomWeather, © 2014

See weather overview